Voltar ao catálogo

STARLINK-34962

AtivoComunicaçõesSSO
NORAD 65248·PAYLOAD·🇺🇸 United States

Lançado Aug 18, 2025 de Vandenberg Space Force Base

Loading…

Próximas Passagens (próximas 24 horas)

TLE

AtualizadoSource: CelesTrak SupGP

Época: Sep 14, 2026, 23:13 UTC

1 65248C 25179P   26257.96784722  .00053417  00000+0  16582-2 0  2576
2 65248  97.2832 297.3085 0000986  99.8329 156.9767 15.33412540    15

Acompanhe STARLINK-34962 em tempo real com AllMySat

Download on the App Store